Weather History for Branson, MO

Change the Weather History Date:

Monday, May 6, 2013

  Actual Average (KHRO) Record (KHRO)
Temperature  
Mean Temperature 57 °F 63 °F  
Max Temperature 64 °F 74 °F 92 °F (1940)
Min Temperature 50 °F 53 °F 33 °F (1911)
Degree Days  
Heating Degree Days 8 4  
Month to date heating degree days 24  
Since 1 July heating degree days 3945  
Cooling Degree Days 0 2  
Month to date cooling degree days 12  
Year to date cooling degree days 49  
Growing Degree Days 7 (Base 50)    
Moisture  
Dew Point 49 °F    
Average Humidity 85    
Maximum Humidity 100    
Minimum Humidity 63    
Precipitation  
Precipitation 0.00 in 0.18 in 2.60 in (1907)
Month to date precipitation 1.03  
Year to date precipitation 14.34  
Snow  
Snow 0.00 in 0.00 in - ()
Month to date snowfall 0.0  
Since 1 July snowfall 11.5  
Snow Depth -    
Sea Level Pressure  
Sea Level Pressure 30.03 in    
Wind  
Wind Speed 8 mph (WNW)    
Max Wind Speed 13 mph    
Max Gust Speed 17 mph    
Visibility 8 miles    
Events Fog , Rain    
T = Trace of Precipitation, MM = Missing Value Source: NWS Daily Summary

Daily Weather History Graph

Daily Weather History Graph

Search for Another Location

Airport:

Trip Planner

Search our weather history database for the weather conditions in past years. The results will help you decide how hot, cold, wet, or windy it might be!

Date:

Astronomy

May. 06, 2013 Rise Set
Actual Time 6:13 AM CDT 8:05 PM CDT
Civil Twilight 5:45 AM CDT 8:33 PM CDT
Nautical Twilight 5:11 AM CDT 9:07 PM CDT
Astronomical Twilight 4:35 AM CDT 9:44 PM CDT
Moon 4:10 AM CDT (5/6) 5:10 PM CDT (5/6)
Length of Visible Light 14h 48m
Length of Day
13h 51m
Waning Crescent, 11% of the Moon is Illuminated
May 6
Waning Crescent
May 9
New
May 17
First Quarter
May 24
Full
May 31
Last Quarter

Hourly Weather History & Observations

Time (CDT) Temp. Dew Point Humidity Pressure Visibility Wind Dir Wind Speed Gust Speed Precip Events Conditions
12:15 AM 50.0 °F 46.4 °F 87% 30.02 in 10.0 mi WNW 6.9 mph - N/A   Overcast
12:35 AM 50.0 °F 46.4 °F 87% 30.02 in 10.0 mi WNW 8.1 mph - N/A   Overcast
12:55 AM 50.0 °F 46.4 °F 87% 30.02 in 10.0 mi WNW 8.1 mph - N/A   Overcast
1:15 AM 50.0 °F 48.2 °F 94% 30.01 in 10.0 mi WNW 8.1 mph - N/A   Overcast
1:35 AM 50.0 °F 48.2 °F 94% 30.01 in 10.0 mi NW 8.1 mph - N/A   Overcast
1:55 AM 50.0 °F 48.2 °F 94% 30.01 in 9.0 mi NW 11.5 mph - N/A   Overcast
2:15 AM 50.0 °F 48.2 °F 94% 30.00 in 9.0 mi NW 11.5 mph - N/A   Overcast
2:35 AM 50.0 °F 48.2 °F 94% 30.00 in 8.0 mi WNW 9.2 mph - N/A   Overcast
2:55 AM 50.0 °F 48.2 °F 94% 30.00 in 9.0 mi WNW 10.4 mph 17.3 mph N/A   Overcast
3:15 AM 50.0 °F 48.2 °F 94% 30.00 in 8.0 mi WNW 10.4 mph 16.1 mph N/A   Overcast
3:35 AM 50.0 °F 48.2 °F 94% 29.99 in 7.0 mi NW 9.2 mph - N/A   Overcast
3:55 AM 50.0 °F 48.2 °F 94% 29.99 in 6.0 mi NW 8.1 mph - N/A   Overcast
4:15 AM 50.0 °F 48.2 °F 94% 29.99 in 5.0 mi NW 10.4 mph - N/A   Overcast
4:35 AM 50.0 °F 48.2 °F 94% 29.99 in 5.0 mi NW 8.1 mph - N/A   Overcast
4:55 AM 50.0 °F 48.2 °F 94% 30.00 in 5.0 mi NW 8.1 mph - N/A   Overcast
5:15 AM 50.0 °F 48.2 °F 94% 30.00 in 4.0 mi NW 9.2 mph - N/A   Overcast
5:55 AM 50.0 °F 48.2 °F 94% 30.01 in 3.0 mi NW 10.4 mph - N/A   Overcast
6:15 AM 50.0 °F 48.2 °F 94% 30.01 in 2.5 mi NW 10.4 mph - N/A   Overcast
6:35 AM 50.0 °F 48.2 °F 94% 30.02 in 2.5 mi NW 9.2 mph - N/A   Overcast
6:50 AM 50.0 °F 48.2 °F 94% 30.02 in 2.0 mi NW 9.2 mph - N/A Rain Light Rain
7:46 AM 50.0 °F 50.0 °F 100% 30.04 in 0.5 mi NW 11.5 mph - N/A Fog , Rain Light Rain
8:14 AM 50.0 °F 50.0 °F 100% 30.04 in 2.0 mi WNW 9.2 mph - N/A   Overcast
8:52 AM 50.0 °F 50.0 °F 100% 30.05 in 4.0 mi NW 11.5 mph 17.3 mph N/A   Overcast
9:46 AM 51.8 °F 50.0 °F 94% 30.07 in 7.0 mi NNW 12.7 mph - N/A   Overcast
10:50 AM 53.6 °F 50.0 °F 88% 30.07 in 10.0 mi NW 9.2 mph - N/A   Overcast
11:45 AM 57.2 °F 50.0 °F 77% 30.06 in 10.0 mi NNW 9.2 mph - N/A   Overcast
12:50 PM 59.0 °F 50.0 °F 72% 30.06 in 10.0 mi NW 9.2 mph - N/A   Overcast
1:45 PM 59.0 °F 50.0 °F 72% 30.05 in 10.0 mi WNW 9.2 mph - N/A   Overcast
2:45 PM 62.6 °F 50.0 °F 63% 30.04 in 10.0 mi NW 8.1 mph - N/A   Overcast
3:45 PM 64.4 °F 51.8 °F 64% 30.02 in 10.0 mi WNW 6.9 mph - N/A   Mostly Cloudy
4:50 PM 64.4 °F 51.8 °F 64% 30.01 in 10.0 mi West 6.9 mph - N/A   Mostly Cloudy
5:45 PM 62.6 °F 50.0 °F 63% 30.00 in 10.0 mi West 8.1 mph - N/A   Scattered Clouds
6:45 PM 62.6 °F 50.0 °F 63% 30.01 in 10.0 mi WNW 4.6 mph - N/A   Partly Cloudy
7:45 PM 59.0 °F 50.0 °F 72% 30.02 in 10.0 mi WNW 5.8 mph - N/A   Partly Cloudy
8:45 PM 57.2 °F 50.0 °F 77% 30.04 in 10.0 mi WNW 4.6 mph - N/A   Partly Cloudy
9:15 PM 57.2 °F 50.0 °F 77% 30.05 in 10.0 mi WNW 5.8 mph - N/A   Mostly Cloudy
9:35 PM 57.2 °F 50.0 °F 77% 30.06 in 10.0 mi West 5.8 mph - N/A   Partly Cloudy
9:55 PM 57.2 °F 50.0 °F 77% 30.07 in 10.0 mi WNW 3.5 mph - N/A   Clear
10:15 PM 55.4 °F 50.0 °F 82% 30.08 in 10.0 mi West 4.6 mph - N/A   Clear
10:35 PM 55.4 °F 50.0 °F 82% 30.08 in 10.0 mi West 3.5 mph - N/A   Partly Cloudy
10:55 PM 55.4 °F 50.0 °F 82% 30.08 in 10.0 mi WNW 3.5 mph - N/A   Clear
11:15 PM 55.4 °F 50.0 °F 82% 30.08 in 10.0 mi WNW 4.6 mph - N/A   Mostly Cloudy
11:35 PM 55.4 °F 50.0 °F 82% 30.08 in 9.0 mi WNW 5.8 mph - N/A   Overcast
11:55 PM 55.4 °F 50.0 °F 82% 30.08 in 8.0 mi WNW 4.6 mph - N/A   Overcast